Deer Park, WA

6:51 PM PST on February 24, 2017 (GMT -0800)
Deer Park

Weather History for KDEW - January, 2012

Change the Weather History Date:

Friday, January 6, 2012

  Actual Average Record
Temperature  
Mean Temperature 29 °F 26 °F  
Max Temperature 37 °F 32 °F 43 °F (2015)
Min Temperature 20 °F 20 °F -5 °F (2017)
Degree Days  
Heating Degree Days 36 39  
Month to date heating degree days 186 237  
Since 1 July heating degree days 3248 3464  
Cooling Degree Days 0 0  
Month to date cooling degree days 0 0  
Year to date cooling degree days 0 0  
Moisture  
Dew Point 24 °F    
Average Humidity 81    
Maximum Humidity 92    
Minimum Humidity 70    
Precipitation  
Precipitation 0.00 in 0.10 in 0.68 in (2002)
Month to date precipitation T 0.63  
Year to date precipitation T 0.63  
Sea Level Pressure  
Sea Level Pressure 30.26 in    
Wind  
Wind Speed 1 mph (West)    
Max Wind Speed 8 mph    
Max Gust Speed 12 mph    
Visibility 10 miles    
Events      
T = Trace of Precipitation, MM = Missing Value Source: NWS Daily Summary

Daily Weather History Graph

Daily Weather History Graph

Search for Another Location

Airport or City:

Trip Planner

Search our weather history database for the weather conditions in past years. The results will help you decide how hot, cold, wet, or windy it might be!

Date:

Astronomy

Jan. 06, 2012 Rise Set
Actual Time 7:38 AM PST 4:12 PM PST
Civil Twilight 7:03 AM PST 4:48 PM PST
Nautical Twilight 6:23 AM PST 5:27 PM PST
Astronomical Twilight 5:46 AM PST 6:04 PM PST
Moon 2:04 PM PST (1/6) 5:24 AM PST (1/6)
Length of Visible Light 9h 45m
Length of Day
8h 33m
Waxing Gibbous, 94% of the Moon is Illuminated
Jan 6
Waxing Gibbous
Jan 8
Full
Jan 16
Last Quarter
Jan 22
New
Jan 30
First Quarter

Hourly Weather History & Observations

Time (PST) Temp. Windchill Dew Point Humidity Pressure Visibility Wind Dir Wind Speed Gust Speed Precip Events Conditions
12:53 AM 27.0 °F - 21.9 °F 81% 30.29 in 10.0 mi Calm Calm - N/A   Clear
1:53 AM 28.9 °F 21.1 °F 24.1 °F 82% 30.29 in 10.0 mi SSE 8.1 mph - N/A   Clear
2:53 AM 27.0 °F 20.5 °F 25.0 °F 92% 30.31 in 10.0 mi South 5.8 mph - N/A   Clear
3:53 AM 24.1 °F - 21.9 °F 91% 30.31 in 10.0 mi Calm Calm - N/A   Clear
4:53 AM 19.9 °F - 17.1 °F 89% 30.32 in 10.0 mi Calm Calm - N/A   Partly Cloudy
5:53 AM 21.0 °F - 19.0 °F 92% 30.33 in 10.0 mi Calm Calm - N/A   Clear
6:19 AM 21.2 °F - 19.4 °F 93% 30.25 in 2.0 mi Calm Calm - N/A   Clear
6:27 AM 19.4 °F - 17.6 °F 93% 30.25 in 9.0 mi Calm Calm - N/A   Clear
6:53 AM 19.9 °F - 18.0 °F 92% 30.33 in 10.0 mi Calm Calm - N/A   Clear
7:53 AM 25.0 °F - 21.9 °F 88% 30.32 in 10.0 mi Calm Calm - N/A   Overcast
8:53 AM 28.9 °F - 27.0 °F 92% 30.32 in 10.0 mi Calm Calm - N/A   Overcast
9:53 AM 30.9 °F - 27.0 °F 85% 30.32 in 10.0 mi Calm Calm - N/A   Overcast
10:53 AM 33.1 °F - 28.0 °F 82% 30.29 in 10.0 mi Calm Calm - N/A   Overcast
11:32 AM 33.8 °F - 28.4 °F 81% 30.21 in 10.0 mi Calm Calm - N/A   Mostly Cloudy
11:41 AM 33.8 °F - 28.4 °F 81% 30.20 in 10.0 mi Calm Calm - N/A   Partly Cloudy
11:53 AM 34.0 °F - 28.0 °F 79% 30.27 in 10.0 mi Calm Calm - N/A   Scattered Clouds
12:06 PM 33.8 °F - 28.4 °F 81% 30.20 in 10.0 mi Calm Calm - N/A   Mostly Cloudy
12:18 PM 33.8 °F - 28.4 °F 81% 30.20 in 10.0 mi Calm Calm - N/A   Scattered Clouds
12:53 PM 35.1 °F - 28.0 °F 76% 30.25 in 10.0 mi Calm Calm - N/A   Clear
1:53 PM 36.0 °F - 27.0 °F 70% 30.24 in 10.0 mi Calm Calm - N/A   Partly Cloudy
2:53 PM 35.1 °F - 26.1 °F 70% 30.24 in 10.0 mi Calm Calm - N/A   Partly Cloudy
3:53 PM 32.0 °F - 26.1 °F 79% 30.25 in 10.0 mi Calm Calm - N/A   Clear
4:53 PM 28.0 °F - 25.0 °F 88% 30.27 in 10.0 mi Calm Calm - N/A   Overcast
5:53 PM 27.0 °F - 23.0 °F 85% 30.25 in 10.0 mi Calm Calm - N/A   Partly Cloudy
6:53 PM 25.0 °F - 23.0 °F 92% 30.26 in 10.0 mi Calm Calm - N/A   Scattered Clouds
7:12 PM 24.8 °F 20.5 °F 23.0 °F 93% 30.17 in 10.0 mi NNW 3.5 mph - N/A   Mostly Cloudy
7:25 PM 24.8 °F - 21.2 °F 86% 30.17 in 10.0 mi Calm Calm - N/A   Scattered Clouds
7:53 PM 27.0 °F 23.0 °F 23.0 °F 85% 30.26 in 10.0 mi NNW 3.5 mph - N/A   Clear
8:53 PM 24.1 °F - 21.0 °F 88% 30.26 in 10.0 mi Calm Calm - N/A   Clear
9:53 PM 21.9 °F - 19.9 °F 92% 30.27 in 10.0 mi Calm Calm - N/A   Mostly Cloudy
10:53 PM 21.9 °F - 19.0 °F 89% 30.27 in 10.0 mi Calm Calm - N/A   Mostly Cloudy
11:32 PM 21.2 °F - 19.4 °F 93% 30.20 in 10.0 mi Calm Calm - N/A   Mostly Cloudy
11:53 PM 24.1 °F - 21.9 °F 91% 30.28 in 10.0 mi Calm Calm - N/A   Overcast